Location: Piolenc
(44.1794°N, 4.7641°E)
Time: 04:51:07
(UTC+00:00)

FALCON 9 DEB - Pass Details

Date: 27 January 2021
Orbit: 377 x 389 km, 53.0° (Epoch: 27 February)

Event Time Altitude Azimuth Distance (km) Brightness Sun altitude
Exits shadow 04:53:50 32° 130° (SE) 687 4.5 -23.3°
Drops below altitude 10° 04:56:31 10° 72° (ENE) 1,405 6.6 -22.8°
Sets 04:58:41 0° 62° (ENE) 2,258 7.7 -22.4°
